Weather History for Juliana Airport, Saint Maarten, Saint Maartin

Change the Weather History Date:

Thursday, February 6, 2014

  Actual Average Record
Temperature  
Mean Temperature 78 °F -  
Max Temperature 82 °F 81 °F - ()
Min Temperature 74 °F 72 °F - ()
Cooling Degree Days 13    
Growing Degree Days 28 (Base 50)    
Moisture  
Dew Point 70 °F    
Average Humidity 74    
Maximum Humidity 83    
Minimum Humidity 59    
Precipitation  
Precipitation 0.16 in 0.06 in - ()
Sea Level Pressure  
Sea Level Pressure 30.03 in    
Wind  
Wind Speed 11 mph ()    
Max Wind Speed 20 mph    
Max Gust Speed 32 mph    
Visibility 7.1 miles    
Events Rain    
T = Trace of Precipitation, MM = Missing Value Source: Averaged Metar Reports

Daily Weather History Graph

Daily Weather History Graph

Search for Another Location

Airport:

Trip Planner

Search our weather history database for the weather conditions in past years. The results will help you decide how hot, cold, wet, or windy it might be!

Date:

Astronomy

Feb. 06, 2014 Rise Set
Actual Time 6:43 AM AST 6:09 PM AST
Civil Twilight 6:21 AM AST 6:32 PM AST
Nautical Twilight 5:55 AM AST 6:58 PM AST
Astronomical Twilight 5:29 AM AST 7:23 PM AST
Moon 11:40 AM AST (2/6) No Moon Set
Length of Visible Light 12h 10m
Length of Day
11h 25m
Waxing Crescent, 48% of the Moon is Illuminated
Feb 6
Waxing Crescent
Feb 6
First Quarter
Feb 14
Full
Feb 22
Last Quarter
Mar 1
New

Hourly Weather History & Observations

Time (AST) Temp. Heat Index Dew Point Humidity Pressure Visibility Wind Dir Wind Speed Gust Speed Precip Events Conditions
12:00 AM 77.0 °F - 69.8 °F 78% 30.01 in 6.2 mi East 11.5 mph - N/A   Scattered Clouds
1:00 AM 77.0 °F - 69.8 °F 78% 30.01 in 6.2 mi East 10.4 mph - N/A   Scattered Clouds
2:00 AM 77 °F - 69 °F 70% 30.00 in 9 mi East 6.9 mph - -   Mostly Cloudy
2:00 AM 77.0 °F - 69.8 °F 78% 29.98 in 6.2 mi East 6.9 mph - N/A   Mostly Cloudy
3:00 AM 75.2 °F - 69.8 °F 83% 29.98 in 6.2 mi East 9.2 mph - N/A Rain Light Rain Showers
4:00 AM 77.0 °F - 69.8 °F 78% 29.98 in 6.2 mi East 9.2 mph - N/A   Scattered Clouds
5:00 AM 77 °F - 70 °F 73% 30.00 in 22 mi East 11.5 mph - -   Partly Cloudy
5:00 AM 77.0 °F - 69.8 °F 78% 29.98 in 6.2 mi East 11.5 mph - N/A   Scattered Clouds
6:00 AM 77.0 °F - 69.8 °F 78% 30.01 in 6.2 mi East 11.5 mph - N/A   Scattered Clouds
7:00 AM 77.0 °F - 69.8 °F 78% 30.01 in 6.2 mi East 12.7 mph - N/A   Mostly Cloudy
7:11 AM 75.2 °F - 69.8 °F 83% 30.04 in 5.0 mi East 11.5 mph 24.2 mph N/A Rain Rain Showers
7:27 AM 75.2 °F - 68.0 °F 78% 30.04 in 6.2 mi East 11.5 mph - N/A   Scattered Clouds
8:00 AM 76 °F - 68 °F 70% 30.06 in 9 mi East 16.1 mph - - Rain Light Rain Showers
8:00 AM 77.0 °F - 68.0 °F 74% 30.04 in 6.2 mi East 15.0 mph - N/A Rain Light Rain Showers
9:00 AM 78.8 °F - 69.8 °F 74% 30.06 in 6.2 mi East 11.5 mph - N/A   Scattered Clouds
10:00 AM 78.8 °F - 71.6 °F 78% 30.06 in 6.2 mi East 12.7 mph - N/A   Mostly Cloudy
11:00 AM 81 °F - 71 °F 66% 30.08 in 16 mi East 13.8 mph - -   Partly Cloudy
11:00 AM 80.6 °F 83.9 °F 69.8 °F 70% 30.06 in 6.2 mi East 13.8 mph - N/A   Mostly Cloudy
12:00 PM 80.6 °F 83.9 °F 69.8 °F 70% 30.04 in 6.2 mi East 16.1 mph - N/A   Scattered Clouds
1:00 PM 82.4 °F 86.3 °F 69.8 °F 66% 30.04 in 6.2 mi East 16.1 mph - N/A   Mostly Cloudy
2:00 PM 82 °F - 70 °F 59% 30.02 in 22 mi East 15.0 mph - -   Partly Cloudy
2:00 PM 82.4 °F 86.3 °F 69.8 °F 66% 30.01 in 6.2 mi East 15.0 mph - N/A   Scattered Clouds
3:00 PM 82.4 °F 87.2 °F 71.6 °F 70% 30.01 in 6.2 mi East 17.3 mph - N/A   Mostly Cloudy
4:00 PM 80.6 °F 83.9 °F 69.8 °F 70% 30.01 in 6.2 mi ENE 17.3 mph - N/A   Scattered Clouds
5:00 PM 80 °F - 70 °F 64% 30.01 in 19 mi ENE 17.3 mph - -   Partly Cloudy
5:00 PM 80.6 °F 83.9 °F 69.8 °F 70% 30.01 in 6.2 mi ENE 17.3 mph - N/A   Scattered Clouds
6:00 PM 78.8 °F - 69.8 °F 74% 30.01 in 6.2 mi ENE 16.1 mph - N/A   Scattered Clouds
7:00 PM 77.0 °F - 71.6 °F 83% 30.04 in 6.2 mi East 13.8 mph - N/A   Partly Cloudy
8:00 PM 78 °F - 71 °F 73% 30.06 in 16 mi East 11.5 mph - -  
8:00 PM 78.8 °F - 71.6 °F 78% 30.04 in 6.2 mi East 11.5 mph - N/A   Partly Cloudy
9:00 PM 78.8 °F - 69.8 °F 74% 30.06 in 6.2 mi East 12.7 mph - N/A   Partly Cloudy
10:00 PM 77.0 °F - 69.8 °F 78% 30.06 in 6.2 mi East 11.5 mph - N/A   Partly Cloudy
11:00 PM 77 °F - 71 °F 77% 30.08 in 2 mi ESE 19.6 mph - - Rain Heavy Rain Showers
11:00 PM 75.2 °F - 69.8 °F 83% 30.06 in 2.5 mi East 16.1 mph 32.2 mph N/A Rain Rain Showers